Main page
METAR-TAF:

METAR-TAF

Airports :

Yasuj Airport

Yasuj, Iran

latitude: 30-41-49N, longitude: 051-33E, elevation: 1825 m

Current weather observation

The report was made 56 minutes ago, at 21:00 UTC
Calm wind
Temperature 12°C
Humidity 47%
Pressure 1024 hPa
Visibility 10 km or more
no clouds below 1500 m and no cumulonimbus

METAR: OISY 212100Z 00000KT CAVOK 12/01 Q1024

Time: 01:26 (21:56 UTC)


TAF: missing

Weather observations and forecasts of more than 4000 airports (METAR and TAF reports).

The available stations are represented by yellow and red dots on the map.

Hover mouse over dot to see the name of the station.

Then click to see weather observations and forecasts.

To change the map : click on the green buttons with a black cross to zoom in, on the green button with a dash to zoom out, or on the green arrows for adjacent maps.


METAR-TAF: